Temperature
14 15 16 16 16 13 12 12 12 12 12 14 13 12 14 15 15 14 14 13 12 12 12 12 12 11 11 12 12 12 12 12 13 12 12 13 12 12 12 12 12 12 12 12
15 16 15 15 16 15 14 13 12 12 12 13 13 13 13 14 14 13 13 12 12 12 12 12 11 11 11 12 12 12 12 12 12 12 12 12 12 12 12 12 12 12 12 12
13 15 16 15 16 16 15 13 13 13 14 13 13 12 13 14 14 14 13 13 12 12 12 12 12 11 11 11 11 12 12 12 12 12 12 12 12 12 11 11 11 12 12 12
12 14 14 14 16 16 15 14 13 13 13 13 13 15 15 16 15 15 14 13 12 12 12 12 11 11 11 11 11 11 11 12 12 12 11 11 11 11 11 11 11 11 11 11
10 12 13 14 16 16 15 15 14 13 13 14 14 13 15 17 16 15 14 13 13 12 12 11 11 11 11 11 11 11 11 11 11 11 11 11 11 11 11 11 11 11 11 11
10 12 12 14 16 17 16 15 16 14 14 14 12 12 14 17 16 16 15 13 13 12 12 11 11 11 11 11 11 11 11 11 11 11 11 11 10 10 10 10 10 10 11 11
11 11 12 14 16 16 15 15 17 17 17 16 13 16 17 17 16 16 15 14 13 12 12 11 11 10 10 10 10 11 11 11 11 10 10 10 10 10 10 10 10 10 10 10
10 11 12 15 16 15 14 17 17 18 18 18 18 19 18 17 16 15 15 14 13 12 11 11 11 10 10 10 10 10 10 10 10 10 10 10 10 10 10 10 10 10 10 10
11 12 14 16 17 18 18 17 18 18 18 18 18 18 18 17 16 15 15 14 13 12 11 11 11 10 10 10 10 10 10 10 9 9 9 9 9 9 9 9 9 9 9 9
11 11 14 16 17 18 18 18 18 18 18 18 17 18 18 17 16 16 15 14 13 12 11 11 11 11 10 10 10 10 9 9 9 9 9 9 9 9 9 9 9 9 9 9
10 12 13 15 16 17 17 17 17 18 18 18 18 18 18 17 17 16 15 14 13 12 12 11 11 11 10 10 10 9 9 9 8 8 8 9 9 9 9 9 9 9 9 8
12 14 13 14 15 15 15 16 16 16 17 17 18 18 18 17 17 16 15 14 13 12 12 12 11 11 10 10 10 9 9 9 8 8 8 9 9 9 9 9 8 8 8 8
12 12 12 13 13 14 14 14 15 15 16 16 17 18 18 18 17 17 15 14 14 13 12 12 11 11 10 10 9 9 9 9 8 8 8 8 8 9 9 8 8 8 8 8
11 11 12 11 11 12 12 13 14 14 15 16 16 17 17 17 17 17 16 15 14 14 13 12 11 11 11 10 9 9 9 9 8 8 8 8 8 8 9 9 9 9 8 8
10 10 10 10 10 11 11 12 12 12 13 14 15 16 17 17 17 17 17 16 15 14 13 12 12 11 11 10 10 9 9 9 9 8 8 8 8 8 9 9 9 9 9 9
9 10 10 10 10 10 10 10 9 10 10 11 13 14 15 16 16 17 17 16 15 14 14 13 12 11 11 10 10 9 9 9 9 8 8 8 8 9 9 9 9 9 9 9
8 9 9 10 10 10 10 10 9 9 9 9 10 11 13 14 15 16 16 16 16 15 14 14 13 12 11 10 10 9 9 9 9 9 9 9 9 9 9 9 9 9 9 9
9 9 9 9 10 10 10 10 10 9 9 9 9 9 11 12 13 15 16 16 15 15 14 14 13 12 11 11 10 10 9 9 9 9 9 9 9 10 10 10 10 10 10 9
9 9 9 9 9 9 10 10 10 9 9 9 9 9 9 10 11 12 13 14 14 14 15 14 13 12 12 11 10 10 10 9 9 9 9 10 10 10 10 10 10 10 10 10
8 8 9 9 9 9 9 9 9 9 9 9 9 10 9 9 9 10 11 12 13 14 15 14 14 13 12 11 11 11 10 10 10 10 10 10 10 10 10 10 10 10 10 10
7 7 7 7 7 7 8 8 8 9 9 9 9 10 10 9 9 9 10 11 12 13 13 13 13 13 13 12 11 11 11 11 10 10 10 10 10 10 10 10 10 10 10 10
6 5 5 5 5 6 7 7 8 8 9 9 9 9 9 9 9 9 9 10 11 12 12 12 12 13 13 13 12 11 11 11 11 11 11 11 11 11 11 11 11 11 11 11
5 5 4 4 4 4 5 6 7 7 8 8 8 8 9 9 9 9 9 10 11 11 11 12 12 12 12 12 12 12 12 11 11 11 11 11 11 11 11 11 11 11 11 11
5 4 4 3 3 3 4 5 6 6 7 7 7 8 8 8 8 9 9 10 11 11 11 12 12 12 12 12 11 11 12 12 12 12 11 11 11 11 11 11 11 11 11 11
5 4 3 3 3 3 3 4 4 5 6 6 6 7 7 8 8 9 9 10 10 11 11 11 11 12 11 11 11 11 11 11 12 12 12 12 12 12 12 11 11 11 11 11
5 4 3 3 3 3 3 3 4 4 4 5 5 6 7 7 8 9 9 10 10 10 11 11 11 11 11 11 11 11 11 11 11 11 12 11 11 11 11 11 11 11 11 11
4 4 3 3 3 3 3 3 3 4 4 4 5 5 6 7 8 9 9 10 10 10 10 11 11 11 11 11 11 11 11 11 11 11 11 11 11 11 11 11 11 11 11 11
Wind_Speed
9 8 5 7 9 8 10 10 11 11 11 16 13 10 9 8 8 8 7 5 4 3 3 3 2 1 2 2 1 1 2 3 3 4 4 5 5 6 7 7 6 6 6 6
6 8 7 8 12 10 10 8 10 10 12 15 10 7 8 9 8 8 7 5 4 5 5 5 5 4 3 2 1 1 2 1 2 3 4 5 5 6 7 7 6 6 6 5
6 5 3 8 11 9 7 9 10 12 14 9 6 9 9 9 9 9 8 7 6 6 7 7 7 6 5 3 1 2 3 3 4 4 5 5 6 7 7 6 5 5 4 5
3 2 7 10 5 7 8 10 11 10 9 8 10 8 8 8 9 10 9 8 7 6 6 5 5 4 3 2 2 3 3 4 4 5 6 6 7 7 6 4 4 4 4 5
4 5 9 9 8 8 8 10 9 11 12 8 3 3 7 9 10 11 10 8 7 7 6 5 5 4 3 3 3 3 4 4 5 6 6 6 6 5 4 5 5 4 4 6
4 4 8 11 8 4 5 7 9 9 12 7 6 3 9 7 7 10 9 7 7 6 5 5 5 4 5 5 4 5 4 4 5 5 6 6 5 4 4 5 7 7 8 7
6 8 9 9 5 5 5 9 5 6 10 9 10 12 7 2 4 6 8 8 8 7 6 6 5 6 6 6 6 5 4 5 5 5 5 5 5 4 6 8 8 8 9 8
4 4 9 6 2 6 9 5 6 7 9 11 14 13 9 6 6 7 8 8 8 8 7 6 6 7 7 6 5 5 6 6 5 5 4 5 6 5 7 8 9 8 9 8
8 10 9 6 8 9 7 9 10 10 11 11 13 13 11 9 9 9 10 9 9 9 8 6 6 7 8 6 5 6 6 6 5 5 4 4 6 7 7 7 7 7 7 7
7 11 12 13 11 11 12 13 13 12 12 10 13 15 12 9 9 10 10 10 9 9 8 8 8 8 7 6 7 7 7 6 5 5 4 4 4 6 7 8 7 7 7 6
9 13 11 12 12 14 16 14 12 13 11 12 13 14 13 10 11 12 12 10 10 11 11 11 9 9 8 8 9 8 8 7 5 5 5 4 4 3 5 5 7 9 7 6
9 13 12 14 15 14 15 16 16 15 15 12 13 16 13 12 12 12 13 11 11 12 12 11 10 10 9 10 11 10 8 8 6 5 5 5 6 5 7 4 9 10 10 8
10 18 17 18 18 17 16 17 18 16 16 16 14 14 15 13 12 13 12 14 15 15 14 12 11 11 11 11 11 11 9 9 7 7 7 7 7 7 6 5 7 8 10 9
12 12 10 14 16 17 16 15 15 14 14 14 14 12 12 13 11 14 16 17 16 14 13 12 13 13 12 13 12 11 10 11 10 8 8 7 7 7 7 7 5 3 3 6
13 11 9 11 14 18 18 17 16 15 15 13 11 10 12 14 16 18 17 15 13 12 13 13 14 13 12 14 14 12 10 8 9 8 8 7 7 7 6 7 6 4 3 3
16 14 13 13 15 15 16 18 18 19 19 17 14 10 11 15 15 14 14 14 14 16 16 15 15 13 13 15 14 11 10 13 11 9 8 7 7 7 7 7 7 6 6 6
18 18 16 16 15 13 11 11 12 14 17 19 20 16 10 10 10 10 13 16 17 17 16 16 15 13 14 16 15 11 10 11 14 10 9 9 8 9 9 9 9 9 9 9
15 15 16 16 15 14 12 10 9 10 11 14 17 18 12 8 11 12 12 12 12 11 13 15 15 14 15 16 14 12 11 11 11 10 10 9 9 9 9 10 11 11 10 9
16 17 17 18 16 14 13 11 9 8 8 9 11 13 14 12 8 8 7 10 13 15 15 15 18 17 16 17 16 12 12 13 11 11 10 11 10 9 9 10 10 11 10 9
15 17 18 18 18 16 15 14 12 11 10 8 8 7 10 12 12 8 6 10 14 15 13 16 18 17 17 18 19 14 14 14 14 12 11 10 10 10 10 10 11 10 10 10
17 18 20 20 20 19 18 16 15 14 13 10 9 7 7 9 11 10 7 9 12 12 11 16 16 16 16 16 20 15 15 15 15 14 13 12 11 11 10 11 11 11 10 11
13 15 18 20 20 21 19 17 16 16 15 13 12 10 8 8 9 10 10 9 10 11 11 12 14 17 19 19 17 17 17 17 15 14 13 13 12 12 12 12 12 12 12 11
13 14 16 18 19 20 21 19 17 15 14 14 13 12 11 10 8 9 12 10 8 11 11 12 17 21 23 19 16 18 18 18 17 15 14 14 14 13 13 13 13 12 12 12
14 15 16 18 18 19 19 19 16 13 13 13 13 13 12 12 11 11 12 13 15 14 10 12 19 22 23 18 16 17 18 18 17 16 15 14 14 14 13 13 12 12 12 13
15 16 17 18 18 16 16 17 16 15 13 12 13 13 12 11 12 11 11 12 14 14 10 12 18 21 19 17 18 18 18 17 17 16 15 14 13 14 13 13 13 12 12 12
16 15 15 16 16 15 14 14 14 13 12 14 14 12 11 10 10 10 10 11 13 12 10 9 10 13 15 16 18 19 18 18 18 17 16 15 15 14 13 13 14 13 12 12
16 15 13 14 14 13 13 14 14 14 13 13 15 14 12 10 9 9 9 9 9 9 9 9 9 10 12 15 17 18 17 16 15 15 14 14 13 13 13 14 13 12 11 11
Wind_Direction
241 248 229 239 237 199 200 207 215 238 242 261 266 266 268 271 279 284 283 268 228 183 162 133 118 120 278 285 326 69 124 164 175 164 145 130 117 109 102 91 84 75 63 48
269 260 241 256 258 239 226 227 230 249 263 258 261 256 258 262 265 268 263 243 214 186 174 176 181 200 221 242 294 81 100 110 134 137 132 123 116 115 108 98 89 78 64 59
261 281 322 270 248 234 224 220 204 228 245 262 258 250 246 248 244 244 242 229 214 205 198 196 196 196 203 211 178 93 92 95 106 115 110 104 111 114 114 108 100 89 73 72
231 169 229 241 235 202 223 247 223 233 251 240 235 251 243 228 226 235 229 222 215 206 199 197 194 197 205 201 175 134 115 115 118 117 111 109 112 116 116 114 109 94 78 83
166 226 263 282 258 205 207 261 240 228 249 248 230 311 286 237 216 222 216 210 206 198 190 188 197 200 197 205 192 166 152 143 138 132 126 122 122 125 126 123 107 90 78 80
170 218 252 248 255 180 145 266 260 217 240 233 142 282 277 264 215 220 206 193 189 180 173 187 206 188 189 201 193 189 177 160 147 142 139 136 133 125 118 119 111 102 83 72
218 232 262 263 277 137 182 243 277 227 234 216 200 226 232 214 202 208 194 187 176 170 181 201 197 180 192 197 202 192 156 140 136 138 142 139 129 121 125 120 112 104 93 78
220 233 263 273 151 191 229 268 288 270 247 231 231 244 243 233 227 204 191 182 172 173 193 205 191 182 192 203 194 155 141 137 133 134 141 138 129 124 128 127 120 114 104 91
210 230 251 256 230 242 247 265 270 267 260 243 241 247 242 232 221 207 196 188 179 178 187 198 192 186 194 199 164 149 144 144 138 126 117 131 139 139 136 135 133 130 123 117
266 270 270 272 267 267 265 257 258 257 258 247 239 245 238 225 211 203 198 192 182 175 184 200 199 197 199 177 161 153 155 153 145 136 126 125 139 151 153 155 148 145 143 138
261 276 287 281 273 269 275 273 265 261 256 244 239 243 231 218 207 203 199 192 184 187 193 202 197 197 190 174 164 162 161 157 151 149 143 132 120 135 162 166 168 162 163 158
283 287 286 282 276 276 277 276 273 269 268 258 234 237 227 216 207 199 197 190 190 196 200 202 196 197 188 179 173 166 165 164 160 154 147 140 129 99 65 120 150 157 161 156
294 302 297 295 298 297 288 282 279 271 262 261 251 232 221 213 203 196 194 192 198 202 204 201 197 198 191 182 178 175 173 170 165 161 157 155 153 143 129 88 107 142 161 165
333 337 332 338 336 336 329 313 300 288 275 263 257 237 217 208 196 194 198 201 202 199 198 196 197 201 190 181 181 181 174 174 170 170 168 166 167 162 158 157 159 165 190 201
347 354 344 345 357 2 1 357 349 336 321 303 280 242 215 205 202 204 204 197 189 191 196 194 198 201 183 179 182 181 177 176 176 175 175 174 172 171 172 175 177 178 186 219
332 333 338 348 354 358 4 7 2 353 346 336 322 283 235 218 214 207 196 185 183 197 199 195 200 198 180 180 181 182 184 186 180 180 180 179 180 182 186 190 195 198 207 213
337 337 333 330 329 331 340 348 350 348 345 341 336 320 277 233 219 209 199 195 197 201 196 194 198 190 181 182 182 184 186 190 188 186 189 189 189 194 197 199 205 213 222 220
326 320 312 306 304 307 310 315 321 330 334 331 332 336 324 261 225 219 210 200 197 200 199 196 190 183 183 184 185 186 186 189 192 196 197 197 198 199 199 204 210 217 228 228
308 305 305 305 303 298 293 289 285 283 292 305 319 331 336 331 292 256 221 194 198 209 211 197 185 184 188 189 186 188 189 192 195 200 203 202 201 200 201 206 212 217 222 220
301 304 305 306 307 303 297 290 280 272 265 264 282 309 324 327 328 310 245 217 219 222 209 190 189 193 194 193 190 194 196 198 200 204 205 205 206 206 206 209 213 216 217 218
304 308 310 309 308 306 301 295 288 276 266 253 252 266 285 302 308 306 280 249 239 226 207 185 192 198 198 195 193 199 201 203 204 205 206 207 209 210 211 213 215 217 218 220
300 304 306 307 306 303 300 296 288 281 274 264 255 250 254 268 283 290 278 262 257 230 212 201 200 201 198 194 198 202 205 208 210 210 209 209 210 212 214 216 218 220 221 222
294 296 298 299 298 298 296 292 287 283 278 273 267 261 256 253 253 262 275 269 259 240 222 213 206 198 194 197 201 203 206 209 210 211 211 210 211 212 214 216 218 220 220 222
295 299 300 300 299 298 295 291 288 285 282 281 276 269 265 266 261 253 255 263 259 252 238 225 213 201 194 203 205 206 208 209 210 211 211 211 211 211 212 213 215 217 218 219
296 300 303 306 305 302 296 293 292 288 285 286 283 278 272 265 259 257 255 255 252 249 243 233 221 210 207 209 208 208 210 209 209 208 207 208 209 209 211 211 213 215 216 218
293 295 295 295 297 296 295 292 289 286 285 286 287 283 276 267 257 253 254 251 248 243 238 234 226 219 218 215 212 210 210 208 206 206 205 204 206 206 209 212 213 216 219 220
295 295 295 296 294 292 291 289 285 283 279 278 280 280 275 268 260 254 250 250 247 243 239 237 235 227 221 219 217 213 209 205 202 202 202 203 204 207 210 208 212 216 218 219
Height
1514 1510 1510 1510 1508 1512 1517 1515 1517 1509 1504 1492 1484 1482 1480 1478 1477 1476 1475 1473 1473 1472 1473 1473 1474 1475 1475 1476 1476 1477 1477 1478 1479 1481 1482 1484 1486 1487 1489 1490 1491 1492 1492 1493
1512 1506 1507 1507 1501 1501 1504 1504 1504 1501 1495 1479 1478 1477 1476 1475 1474 1473 1472 1471 1471 1471 1471 1472 1473 1474 1475 1476 1476 1476 1477 1477 1478 1480 1482 1484 1486 1488 1490 1491 1492 1493 1494 1494
1519 1508 1506 1509 1494 1492 1494 1492 1493 1494 1483 1474 1475 1473 1471 1470 1470 1469 1469 1469 1469 1470 1470 1471 1472 1473 1474 1475 1476 1476 1476 1477 1478 1479 1481 1483 1485 1487 1490 1491 1493 1494 1495 1496
1518 1512 1515 1499 1482 1483 1485 1482 1480 1478 1473 1471 1470 1468 1467 1466 1466 1466 1466 1466 1467 1468 1469 1470 1471 1473 1474 1474 1475 1476 1476 1477 1478 1479 1481 1483 1485 1487 1489 1491 1493 1494 1495 1496
1520 1516 1505 1490 1477 1475 1479 1478 1469 1470 1467 1466 1467 1466 1463 1461 1461 1461 1462 1463 1465 1466 1467 1469 1470 1471 1472 1473 1474 1475 1476 1477 1478 1479 1481 1482 1484 1486 1488 1490 1492 1494 1495 1496
1516 1514 1509 1486 1469 1467 1472 1476 1462 1463 1462 1462 1465 1469 1462 1458 1457 1457 1458 1460 1462 1464 1465 1467 1468 1469 1469 1470 1471 1473 1475 1476 1478 1479 1480 1482 1483 1485 1487 1489 1491 1493 1495 1496
1512 1511 1495 1474 1468 1469 1480 1474 1459 1459 1458 1458 1459 1457 1455 1455 1455 1455 1455 1457 1458 1461 1462 1464 1465 1466 1466 1467 1469 1472 1473 1475 1477 1478 1480 1481 1483 1484 1486 1488 1490 1492 1494 1495
1509 1509 1497 1470 1469 1472 1468 1459 1458 1456 1454 1452 1450 1450 1450 1451 1451 1452 1452 1453 1455 1457 1459 1461 1462 1463 1464 1465 1467 1469 1471 1473 1475 1477 1479 1480 1482 1484 1485 1487 1490 1491 1493 1495
1497 1491 1474 1468 1466 1463 1460 1457 1454 1451 1449 1447 1445 1444 1444 1445 1446 1447 1449 1450 1452 1454 1456 1458 1459 1461 1462 1464 1466 1467 1469 1471 1473 1475 1477 1479 1481 1482 1484 1486 1488 1490 1492 1494
1487 1476 1468 1464 1460 1458 1456 1452 1448 1446 1444 1442 1439 1438 1438 1440 1441 1442 1444 1446 1448 1450 1452 1454 1456 1458 1460 1462 1464 1465 1467 1469 1471 1473 1475 1477 1479 1481 1483 1485 1487 1489 1491 1493
1482 1471 1465 1459 1455 1451 1448 1445 1443 1440 1438 1436 1434 1432 1432 1433 1435 1437 1439 1441 1444 1446 1448 1450 1453 1455 1457 1459 1461 1463 1464 1466 1468 1471 1473 1475 1477 1479 1481 1484 1486 1488 1490 1492
1476 1467 1463 1455 1448 1445 1442 1438 1435 1433 1431 1429 1427 1425 1424 1426 1428 1431 1433 1436 1439 1441 1443 1446 1449 1451 1453 1455 1457 1459 1460 1462 1465 1467 1470 1472 1474 1477 1479 1482 1484 1487 1489 1491
1473 1464 1456 1449 1443 1438 1435 1430 1427 1425 1422 1421 1419 1418 1417 1418 1421 1424 1427 1430 1432 1435 1438 1441 1444 1447 1449 1451 1453 1455 1456 1458 1461 1464 1467 1470 1472 1475 1477 1480 1483 1485 1487 1489
1470 1461 1453 1448 1442 1435 1429 1424 1420 1416 1414 1412 1411 1410 1409 1410 1413 1416 1419 1422 1426 1429 1432 1436 1439 1441 1444 1447 1449 1451 1453 1455 1458 1461 1464 1467 1471 1474 1476 1479 1481 1483 1486 1488
1467 1463 1458 1450 1441 1433 1427 1420 1415 1411 1408 1405 1403 1402 1401 1401 1404 1407 1411 1415 1420 1423 1427 1430 1433 1436 1439 1442 1445 1447 1450 1452 1455 1459 1462 1466 1469 1472 1475 1478 1480 1482 1484 1486
1467 1461 1454 1447 1440 1433 1427 1421 1417 1412 1408 1404 1400 1397 1395 1395 1397 1400 1404 1408 1412 1415 1419 1422 1426 1430 1434 1437 1440 1443 1446 1449 1453 1456 1460 1463 1466 1469 1472 1475 1478 1480 1482 1484
1465 1458 1452 1446 1441 1434 1428 1424 1419 1414 1409 1404 1399 1394 1390 1389 1391 1394 1397 1400 1403 1407 1411 1415 1419 1424 1428 1431 1434 1438 1442 1446 1449 1453 1457 1460 1464 1467 1469 1472 1474 1477 1479 1481
1465 1459 1453 1448 1441 1434 1426 1420 1416 1412 1407 1403 1398 1392 1386 1384 1384 1386 1390 1393 1396 1400 1404 1408 1413 1418 1422 1426 1429 1433 1437 1441 1445 1449 1453 1456 1460 1463 1465 1468 1470 1472 1474 1477
1459 1454 1448 1443 1438 1431 1424 1417 1412 1407 1402 1398 1395 1389 1385 1381 1380 1382 1384 1387 1389 1392 1395 1400 1406 1411 1415 1420 1424 1428 1432 1436 1440 1444 1448 1451 1455 1457 1460 1463 1465 1468 1470 1472
1453 1448 1442 1436 1430 1425 1419 1413 1407 1402 1397 1392 1389 1385 1381 1378 1377 1376 1378 1380 1381 1384 1388 1392 1398 1403 1408 1413 1417 1421 1425 1429 1433 1437 1441 1445 1448 1451 1454 1457 1460 1462 1464 1467
1445 1440 1434 1428 1421 1415 1410 1405 1401 1396 1391 1387 1383 1380 1376 1374 1373 1372 1372 1373 1375 1378 1381 1385 1389 1394 1399 1404 1409 1414 1418 1422 1426 1430 1434 1438 1441 1445 1448 1451 1453 1456 1458 1460
1437 1431 1425 1419 1412 1405 1399 1395 1391 1387 1383 1380 1376 1374 1371 1369 1368 1367 1366 1367 1368 1370 1373 1376 1380 1385 1390 1395 1400 1404 1409 1414 1418 1422 1426 1430 1433 1437 1440 1444 1446 1449 1451 1453
1428 1421 1414 1408 1401 1394 1388 1383 1380 1377 1373 1370 1368 1366 1364 1363 1362 1360 1358 1359 1361 1363 1365 1367 1371 1375 1380 1385 1390 1395 1399 1404 1408 1413 1417 1421 1425 1429 1432 1436 1438 1441 1443 1446
1418 1412 1404 1397 1390 1383 1377 1372 1369 1366 1363 1361 1358 1357 1356 1354 1352 1352 1351 1351 1352 1355 1357 1359 1362 1365 1369 1374 1379 1384 1389 1393 1398 1403 1408 1412 1416 1420 1424 1427 1430 1433 1436 1438
1409 1402 1395 1388 1381 1374 1368 1363 1358 1355 1353 1350 1348 1346 1345 1344 1343 1343 1343 1344 1344 1346 1348 1350 1353 1355 1359 1363 1367 1372 1377 1382 1387 1392 1397 1402 1406 1410 1414 1418 1421 1424 1427 1429
1400 1393 1386 1380 1373 1366 1360 1354 1349 1345 1343 1340 1337 1335 1334 1333 1333 1334 1334 1335 1336 1337 1339 1341 1343 1346 1349 1352 1355 1360 1365 1370 1376 1382 1386 1391 1397 1401 1405 1409 1412 1415 1418 1420
1391 1384 1377 1369 1362 1356 1350 1345 1340 1335 1332 1329 1326 1324 1323 1323 1324 1325 1326 1326 1327 1328 1330 1331 1333 1335 1337 1340 1344 1348 1353 1358 1364 1370 1376 1382 1387 1392 1396 1400 1403 1407 1410 1412